weather.gov     
National Weather Service

Regional Weather Roundup
NWS Homepage
This page is being discontinued on March 12, 2014.
The same data is available at this site. Please update your bookmarks.
Thank you, and we apologize for the inconvenience.
Please send an email to SR-SRH.Webmaster@noaa.gov with any concerns.


Current Version
Previous Version:    01  02  03  04  05  06  07  08  09  10  11  12  13  14  15  16  17  18  19  20  21  22  23  24  25  26  27  28  29  30  
   31  32  33  34  35  36  37  38  39  40  41  42  43  44  45  46  47  48  49  50  51  52  53  54  55  56  57  58  59  60  
[Printable]
959
ASUS43 KBIS 012120
RWRND

NORTH DAKOTA REGIONAL WEATHER ROUNDUP
NATIONAL WEATHER SERVICE BISMARCK ND
300 PM CST SUN FEB 01 2015

NOTE: "FAIR" INDICATES FEW OR NO CLOUDS BELOW 12,000 FEET WITH NO
SIGNIFICANT WEATHER AND/OR OBSTRUCTIONS TO VISIBILITY.


NDZ001>003-009>011-017-012200-
NORTHWEST NORTH DAKOTA

CITY           SKY/WX    TMP DP  RH WIND       PRES   REMARKS
WILLISTON      SUNNY      5  -5  63 SW12      30.32F WCI -11
MINOT          SUNNY      4 -11  50 SW10      30.35F WCI -11
MINOT AFB      SUNNY      4  -8  55 SW7       30.35F WCI  -8
$$

NDZ018>021-031>035-040>046-012200-
SOUTHWEST NORTH DAKOTA

CITY           SKY/WX    TMP DP  RH WIND       PRES   REMARKS
BISMARCK       SUNNY      4 -13  45 W7        30.42F WCI  -8
DICKINSON      SUNNY      4  -5  66 W7        30.27F WCI  -8
GARRISON         N/A      1 -10  60 W7        30.35F WCI -12
HETTINGER ARPT SUNNY      6  -1  73 W8        30.30F WCI  -7
$$

NDZ004>008-012>016-024-026-027-054-012200-
NORTHEAST NORTH DAKOTA

CITY           SKY/WX    TMP DP  RH WIND       PRES   REMARKS
GRAND FORKS    SUNNY      1 -12  54 N7        30.47F WCI -12
GRND FRKS AFB  SUNNY      2 -16  43 N6        30.46F WCI  -9
DEVILS LAKE    SUNNY      0 -15  50 W8        30.37F WCI -15
$$

NDZ022-023-025-028>030-036>039-047>053-012200-
SOUTHEAST NORTH DAKOTA

CITY           SKY/WX    TMP DP  RH WIND       PRES   REMARKS
FARGO          FAIR       5 -13  43 N16       30.44F WCI -14
JAMESTOWN      SUNNY      3 -13  47 N6        30.38F WCI  -8
$$





U.S. Dept. of Commerce
NOAA National Weather Service
1325 East West Highway
Silver Spring, MD 20910
E-mail: w-nws.webmaster@noaa.gov
Page last modified: May 16, 2007
NATIONAL WEATHER SERVICE: for Safety, for Work, for Fun - FOR LIFE